Flag for Western Sahara Weather past 2 weeks in El Aaiún, Western Sahara

Now
64 °F

Scattered clouds.


Feels Like: 64 °F
Forecast: 58 / 74 °F
Wind: 18 mph from Northeast

Location: Laayoune/Hassan Isl

Current Time: Apr 19, 2015 at 10:11:07 PM

Latest Report: Apr 19, 2015 at 9:00 PM


Visibility: N/A

Pressure: 30.01 "Hg

Humidity: 64%

Dew point: 52 °F

Location of El AaiúnLocation

Historic Weather in El Aaiún — Graph

°F

El Aaiún temperature yesterday

Maximum temperature yesterday: 75 °F (at 2:00 PM)
Minimum temperature yesterday: 61 °F (at 6:00 AM)
Average temperature yesterday: 67 °F

Past Weeks' High & Low Weather Summary

 TemperatureHumidityPressure
High79 °F (Apr 17, 4:00 PM)88% (Apr 7, 7:00 AM)30.18 "Hg (Apr 7, 7:00 AM)
Low52 °F (Apr 14, 8:00 AM)34% (Apr 16, 4:00 PM)29.89 "Hg (Apr 6, 6:00 PM)
Average65 °F65%30.04 "Hg
* Reported Apr 4 9:00 PM — Apr 19 9:00 PM, El Aaiún, Weather by CustomWeather, © 2015

Note: Actual official high and low records may vary slightly from our data, if they occured in-between our weather recording intervals... More about our weather records

Advertising

El Aaiún weather history for previous 24 hours

 ConditionsComfort  
Time TempWeatherWind HumidityBarometerVisibility
9:00 PM
Sun, Apr 19
64 °FScattered clouds.18 mph64%30.01 "HgN/A
8:00 PM68 °FPassing clouds.20 mph56%29.98 "HgN/A
7:00 PM70 °FPassing clouds.18 mph53%29.98 "HgN/A
6:00 PM72 °FSunny.18 mph50%29.98 "Hg10 mi
5:00 PM73 °FSunny.20 mph47%29.98 "Hg10 mi
4:00 PM75 °FSunny.17 mph41%29.98 "Hg10 mi
3:00 PM75 °FSunny.17 mph41%29.98 "Hg10 mi
2:00 PM73 °FPassing clouds.15 mph41%30.01 "HgN/A
1:00 PM72 °FPassing clouds.15 mph41%30.04 "HgN/A
11:00 AM68 °FScattered clouds.16 mph49%30.07 "HgN/A
10:00 AM64 °FPartly sunny.16 mph64%30.04 "HgN/A
9:00 AM61 °FScattered clouds.7 mph72%30.04 "HgN/A
8:00 AM59 °FPassing clouds.7 mph72%30.01 "HgN/A
7:00 AM59 °FPassing clouds.10 mph77%30.01 "HgN/A
6:00 AM61 °FPassing clouds.8 mph77%30.01 "HgN/A
5:00 AM61 °FPassing clouds.12 mph77%30.01 "HgN/A
4:00 AM61 °FPassing clouds.8 mph83%30.04 "HgN/A
3:00 AM61 °FPassing clouds.9 mph77%30.04 "HgN/A
2:00 AM63 °FPassing clouds.15 mph73%30.04 "HgN/A
1:00 AM63 °FPassing clouds.10 mph77%30.07 "HgN/A
12:00 AM63 °FPassing clouds.12 mph73%30.07 "HgN/A
11:00 PM
Sat, Apr 18
63 °FPassing clouds.9 mph73%30.07 "HgN/A
10:00 PM63 °FClear.14 mph73%30.04 "Hg10 mi
Weather by CustomWeather, © 2015

See weather overviewHow to use our weather pages